OBJECT C, 57168

Orbit data source: Space-Track

You're viewing an uncataloged RSO

Recently launched and/or uncataloged RSOs may have evolving metadata. Metadata may include the following, but is not limited to: Owner, Manufacturer, Bus, Motor, and Mission.

OBJECT C, 57168 is a satellite in SSO that was launched on Tue, 27 Jun 2023 UTC via a SOYUZ-2-1B launch vehicle from the Vostochny Cosmodrome (VOSTO). Unknown objects in Earth's orbit typically refer to objects detected orbiting the Earth but have not yet been identified or cataloged. These objects could be anything from previously untracked satellites, spent rocket stages, debris from satellite collisions, or even natural meteoroids temporarily captured by Earth's gravity.

Loading next visibility...
Identifier
57168, 2023-091C
Orbit
SSO
Country
Flag of TBDTBD
Related business
None
Manufacturer
Unknown
Mission
Operational Amateur Technology
Bus & Motor
Unknown
Mass
Unknown
Launch date (UTC)
2023-06-27 (3 years ago)
Launch vehicle
SOYUZ-2-1B
Launch site
Vostochny Cosmodrome (VOSTO)
Object type
Unknown
Shape & HBR
Box, 0.2 m
Radar Cross Section
0.035 m², Medium (>0.1 m² and < 1m²)

Expand to show TLE details & history
Last TLE update: 9 hours ago

TLE from 9 hours ago
0 OBJECT C
1 57168U 23091C   26248.23271533  .00005029  00000-0  18814-3 0  9991
2 57168  97.4949 310.9566 0011076 176.4475 183.6844 15.27731453176477
Epoch: 2026-09-05T05:35Z
TLE epoch observation values (Epoch: 2026-09-05T05:35:06.604Z)
Latitude
-0.0001°
Longitude
-117.16604°
Altitude
493.279 km
Speed
7.614 km/s
True Right ascension
20h 43m 49s
True Declination
0° 00' 00"
Sunlit
Object was in full shadow at epoch
Visualization orbit readout
Latitude
Unknown
Longitude
Unknown
Altitude
Unknown
Speed
Unknown
Apparent Right ascension
Unknown
Apparent Declination
Unknown
Sunlit
N/A
Visualization observer readout
Local Sidereal Time
06:20:42
Azimuth
Unknown
Elevation
Unknown
Doppler factor
Unknown
Orbital elements
Apogee altitude
487.151 km
Perigee altitude
471.959 km
Semi-major axis
6,857.692 km
Eccentricity
0.00111
Inclination
97.4949°
RAAN
310.9566°
Arg. of periapsis
176.4475°
True anomaly
183.67626°
Mean anomaly
183.6844°
Eccentric anomaly
183.68033°
Mean motion
3.82187 °/min
Orbital period
94.19 mins
BSTAR
0.00018814
Loading maneuver chart data...
Computing Atmospheric mass density...
Loading historical data...
Loading historical data...
Loading historical data...
Loading historical data...
Loading historical data...
Loading historical data...
Loading historical data...

Documentation

Showing up to 5 results
|